Theta_e
332 332 334 336 341 341 333 338 337 338 339 343 341 342 345 345 346 347 340 338 326 327 327 327 327 327 328 329 330 331 332 334 335 336 337 336 336 337 339 340 341 340 340 338 337 335 334 332 332
331 335 336 337 339 342 335 336 338 339 339 343 340 343 345 349 342 340 342 338 326 327 327 327 327 327 328 329 330 332 333 335 336 336 337 338 337 338 337 338 334 334 335 335 334 330 328 327 327
333 338 336 343 342 341 335 337 335 339 339 340 339 338 340 342 340 340 342 341 330 329 328 327 327 327 327 329 331 333 334 335 335 338 340 340 339 338 335 332 326 323 323 324 327 326 325 324 323
336 335 333 345 343 340 334 335 334 335 341 341 341 347 339 339 338 339 343 344 339 334 328 326 326 327 328 330 331 333 333 333 335 338 338 338 338 336 333 328 323 323 322 322 323 323 321 321 320
336 334 341 345 346 337 334 332 332 336 343 342 342 347 341 336 337 337 343 343 341 341 337 326 326 326 328 329 331 332 333 333 337 338 336 331 329 325 323 323 323 324 324 325 324 322 322 322 322
325 333 339 340 342 340 334 332 336 336 339 339 340 343 343 339 340 339 340 342 341 343 341 327 326 326 327 329 330 331 332 335 338 336 334 326 323 323 325 326 327 326 328 328 327 326 324 324 323
325 333 337 343 339 336 337 332 337 337 340 341 339 342 341 340 340 340 340 345 346 344 331 325 325 325 327 328 330 331 333 337 336 334 331 324 324 325 327 329 330 329 329 329 327 327 326 325 325
324 332 336 344 342 339 341 332 332 333 335 336 340 344 343 339 339 339 340 346 344 341 334 330 324 325 327 329 330 331 334 337 335 332 333 332 326 327 330 331 332 330 330 328 327 328 326 325 325
326 332 334 336 337 335 337 333 334 333 333 335 335 340 340 340 339 339 339 338 343 343 343 337 335 329 327 328 330 334 337 330 332 330 329 335 334 330 335 333 332 330 329 324 322 321 322 322 325
326 331 333 333 333 334 336 333 335 333 334 335 337 340 341 340 338 338 338 338 338 344 342 341 340 341 338 337 334 336 336 333 328 329 333 337 337 336 334 334 332 328 323 322 321 320 319 318 319
325 325 329 333 333 333 335 335 335 333 336 334 337 340 339 338 337 337 339 338 337 337 340 342 342 342 343 342 342 335 338 337 330 330 331 328 338 337 334 332 328 323 323 322 322 321 319 319 320
325 325 325 327 330 334 334 336 336 335 335 333 334 338 338 337 337 338 336 337 336 339 339 339 339 338 339 346 344 342 342 338 334 332 330 335 339 335 335 331 326 323 323 323 322 321 319 320 319
327 325 327 326 328 328 336 338 337 336 334 333 334 339 339 340 340 337 335 338 338 342 342 342 343 343 345 345 347 345 343 339 337 335 333 339 335 332 332 328 324 323 324 323 323 322 320 320 319
327 325 325 327 326 329 337 335 335 335 334 335 335 341 340 339 334 339 339 337 344 343 344 345 345 347 348 349 350 345 343 339 338 338 340 335 331 331 332 327 324 324 324 323 323 321 320 320 319
327 326 325 327 327 328 332 334 333 332 333 333 337 336 334 333 335 340 342 347 346 347 347 350 350 350 351 348 345 342 336 338 338 336 334 334 333 331 327 325 325 325 324 323 322 321 321 319 318
326 328 329 329 329 328 328 332 333 330 331 334 337 341 340 340 341 341 347 347 347 347 347 347 348 350 343 342 340 338 336 335 335 335 335 335 334 330 327 325 325 325 324 323 322 322 319 318 317
330 331 332 332 331 328 325 330 333 332 331 333 340 337 337 337 341 339 342 342 347 347 347 346 342 342 342 341 339 341 337 336 332 330 326 333 333 326 327 326 325 324 325 321 322 320 318 318 318
328 330 331 333 330 328 327 331 331 331 333 335 339 338 338 336 338 335 344 343 348 349 348 346 343 343 342 342 340 337 339 336 335 333 333 330 332 329 328 326 325 325 323 321 320 317 316 317 316
325 329 332 331 329 330 329 327 327 330 328 329 335 335 340 337 342 344 338 344 348 348 347 347 346 345 344 340 339 340 340 337 338 336 336 336 331 329 328 327 327 324 322 321 318 315 315 315 315
326 330 330 328 328 325 325 325 331 333 334 335 335 344 344 343 338 341 340 342 341 343 346 345 346 345 345 341 341 342 342 340 339 339 334 332 330 330 328 326 325 323 322 318 316 315 314 315 314
329 328 327 327 325 325 329 334 336 335 338 335 337 339 347 346 346 337 338 333 340 329 325 326 343 344 345 344 343 342 342 342 337 331 332 330 329 327 326 324 323 323 318 316 315 314 316 315 314
326 326 325 326 328 327 331 337 338 336 334 336 334 331 343 343 337 337 332 334 336 329 329 329 344 345 344 344 342 343 340 338 332 327 327 325 324 323 321 320 319 317 316 315 315 316 315 314 315
331 330 330 330 328 331 334 337 338 336 335 334 333 332 331 341 342 341 338 336 331 329 337 341 331 345 345 344 343 340 340 334 330 327 325 324 324 322 320 320 317 317 316 315 316 315 314 314 313
331 332 332 332 329 336 333 337 335 328 332 335 333 327 324 332 332 332 334 334 332 331 332 331 337 342 344 341 340 342 339 334 329 328 327 324 322 322 321 317 316 316 316 315 315 314 313 313 311
331 332 332 332 339 339 333 335 332 331 329 328 326 326 327 332 332 331 330 332 333 331 326 339 340 343 342 336 337 338 334 330 326 325 324 322 322 319 319 317 315 316 316 315 313 313 313 310 310
333 333 335 338 340 332 333 337 332 331 328 327 327 327 329 331 331 331 332 331 329 325 331 334 340 338 339 334 335 331 329 325 323 323 322 320 319 318 317 315 315 315 314 312 313 313 310 311 311
336 334 331 335 336 334 334 333 331 331 330 329 328 329 327 328 331 331 331 329 329 327 327 331 329 329 331 331 329 325 323 322 323 322 320 318 316 315 313 312 313 313 313 312 310 311 312 311 311
334 334 337 332 334 334 334 333 331 328 332 329 329 328 326 326 328 330 330 331 330 330 328 328 326 324 324 324 323 322 323 323 320 319 317 316 313 312 311 311 310 310 310 310 311 311 311 311 310
338 339 335 333 329 330 333 335 329 330 331 329 330 328 326 326 325 325 328 330 328 326 326 327 326 325 324 324 323 322 319 317 316 315 314 312 311 310 308 309 309 308 309 310 311 311 311 311 311
332 336 335 336 335 333 334 330 329 329 329 330 332 330 331 325 325 324 327 330 328 327 325 326 325 324 323 322 318 318 316 316 314 312 311 311 310 309 309 309 309 308 310 311 311 311 311 310 310
Wind_Speed
6 6 2 5 3 4 5 7 12 10 5 10 14 7 9 11 5 4 22 29 32 28 23 19 16 14 13 11 10 9 8 7 6 6 6 7 8 8 9 9 9 10 10 11 11 12 12 13 13
7 5 4 3 4 3 1 8 9 10 7 17 21 17 11 8 6 13 18 28 27 27 22 19 16 14 12 11 9 8 7 6 5 5 6 7 7 8 8 9 10 10 10 10 11 12 12 13 13
9 1 4 4 2 5 6 9 8 10 14 22 17 13 8 12 11 7 33 27 25 25 20 18 16 14 13 11 9 7 6 5 4 5 5 6 6 7 8 8 10 11 11 11 12 12 13 13 14
6 3 4 2 11 17 7 10 12 9 18 20 14 9 12 23 9 17 33 26 24 23 20 18 16 15 13 11 10 7 6 4 4 4 3 4 3 5 5 7 9 10 11 11 10 10 12 13 15
7 2 5 7 18 3 7 10 11 13 18 19 16 13 8 16 23 23 32 27 30 26 22 20 17 16 14 12 10 7 5 5 4 3 2 3 3 4 4 5 7 8 10 12 12 11 12 13 15
3 3 4 3 5 6 6 7 21 21 21 16 14 10 5 21 17 19 21 31 32 29 24 21 17 16 14 13 11 9 7 6 4 2 2 3 4 4 3 2 4 8 11 12 12 11 11 14 16
5 5 3 9 6 6 9 10 15 15 17 7 14 9 8 15 21 17 14 30 29 24 23 21 19 17 16 14 12 10 9 6 3 1 3 4 5 4 3 1 3 10 10 12 12 12 12 15 19
4 8 8 9 14 8 12 4 9 7 4 10 15 7 11 16 25 21 19 30 28 25 22 19 20 19 19 17 15 13 10 5 3 4 6 11 9 8 7 5 4 8 10 11 14 13 15 20 21
14 3 3 10 17 9 15 5 3 5 8 0 8 10 17 31 26 23 22 21 33 28 23 22 20 20 21 19 17 14 14 12 7 5 5 13 20 16 12 10 7 7 10 12 13 14 16 19 18
4 5 10 8 7 8 8 7 2 0 4 3 12 19 25 28 26 23 19 21 26 29 24 23 20 18 19 19 18 19 17 10 7 11 11 10 15 14 6 4 1 9 9 12 14 14 15 19 21
9 3 8 7 5 11 14 9 6 5 4 7 15 19 18 20 24 16 10 9 22 20 23 21 22 16 16 24 22 20 17 13 11 6 19 18 13 4 3 1 3 8 10 13 15 16 22 20 19
5 4 6 6 9 9 9 8 5 2 7 5 9 17 14 15 15 17 11 15 17 19 20 14 11 11 8 18 17 15 12 11 8 16 17 21 10 6 4 4 8 10 13 13 13 16 20 21 22
2 4 3 6 2 11 15 12 13 9 10 7 2 10 6 9 18 22 13 23 20 20 16 18 18 11 8 6 8 12 7 9 8 13 20 17 10 2 2 3 6 9 10 10 15 23 18 18 19
2 6 5 4 4 8 17 11 11 13 13 10 9 26 19 11 12 26 42 24 19 19 13 19 18 13 9 5 5 3 4 10 13 17 13 8 0 3 4 4 4 8 10 15 19 17 19 16 15
3 3 7 7 3 7 16 2 7 7 1 6 14 16 15 14 31 38 38 20 19 18 20 18 13 12 10 6 3 6 20 26 23 18 11 3 5 2 5 1 4 9 13 17 16 16 10 14 21
5 7 7 10 8 3 7 7 7 10 6 10 9 7 16 21 27 16 30 11 17 17 14 11 9 9 3 6 6 7 11 9 7 7 3 2 7 6 6 6 5 7 14 12 13 9 17 23 23
6 3 4 10 11 5 6 2 10 11 8 6 9 10 10 3 19 23 24 40 18 17 12 11 8 4 3 5 4 3 3 5 5 5 11 10 9 11 6 10 9 11 10 12 11 16 20 22 20
7 6 5 1 10 5 7 2 6 6 5 11 14 11 5 7 17 25 36 29 20 16 11 9 5 5 5 3 3 4 7 10 7 7 7 13 10 7 12 8 10 9 12 11 11 17 20 13 16
8 9 13 12 4 2 5 5 9 7 10 10 7 7 10 13 19 35 23 11 21 17 14 10 5 7 6 7 6 9 12 12 11 5 3 7 9 12 9 8 10 10 15 13 12 16 15 17 18
6 8 6 7 10 7 8 9 13 16 8 8 10 14 15 12 14 12 10 12 30 34 29 10 8 9 10 10 7 3 3 5 9 5 4 8 10 10 10 12 12 12 11 8 8 12 15 13 14
6 7 6 5 7 8 4 14 9 7 10 12 6 5 17 20 14 7 13 15 19 38 14 26 26 16 12 8 6 3 4 5 5 3 2 1 2 7 8 7 9 8 5 5 8 13 9 13 18
6 7 7 8 5 4 11 2 7 4 7 4 9 7 12 7 7 8 14 16 17 21 10 21 22 15 8 8 4 6 4 6 7 9 8 10 12 9 7 7 6 6 2 6 9 9 12 13 13
3 8 7 7 7 6 8 6 7 2 5 4 7 9 11 13 16 11 15 24 20 12 5 3 22 8 7 9 8 5 3 5 8 11 12 13 10 10 9 12 8 7 10 10 8 10 11 13 13
4 8 11 6 5 4 7 5 5 4 2 3 9 7 11 10 15 21 23 24 22 23 18 20 18 17 15 9 8 5 4 2 8 11 11 15 17 18 16 12 11 10 9 9 11 12 15 13 15
11 8 5 7 4 4 6 8 7 5 4 6 9 11 13 17 15 14 11 15 11 5 3 5 14 16 10 5 11 9 5 5 9 10 12 17 15 16 16 14 14 12 14 13 14 13 15 16 13
6 6 4 2 1 3 5 1 4 7 8 10 9 13 18 13 12 8 11 19 15 6 3 3 2 10 7 8 6 9 10 11 10 11 13 15 17 16 13 19 18 20 15 15 15 16 17 11 13
6 7 6 2 4 5 4 5 6 6 7 8 11 12 9 7 8 8 9 8 3 4 6 11 16 20 16 15 16 15 15 14 13 12 14 14 13 16 20 20 21 17 14 18 17 14 15 15 13
9 4 6 4 2 2 3 4 2 8 7 9 9 9 9 14 12 9 14 19 18 21 27 29 28 26 20 17 15 15 14 14 15 14 14 15 20 22 21 19 19 18 19 18 15 17 13 12 11
6 3 3 2 4 2 2 2 6 2 9 12 21 22 15 14 15 10 17 24 27 28 26 24 25 25 21 15 17 17 18 17 17 19 21 24 22 21 19 19 20 20 17 14 16 15 13 12 12
3 6 3 4 4 2 3 4 6 13 12 17 20 21 22 8 7 8 17 19 23 23 23 25 24 25 24 21 22 20 21 22 23 25 25 24 23 21 19 17 18 18 16 17 17 13 11 11 10
Wind_Direction
30 66 290 225 27 53 82 83 93 95 61 92 112 121 161 177 165 193 136 144 140 144 147 145 144 137 133 128 124 119 110 99 89 81 75 71 68 64 64 62 54 51 44 39 34 26 20 16 12
358 202 226 324 2 352 87 112 123 120 117 100 102 114 121 121 127 116 117 137 143 143 148 147 146 142 139 139 136 128 118 106 93 80 71 72 69 65 66 64 59 48 41 33 30 28 24 17 14
345 135 76 40 23 285 118 109 97 126 123 102 98 104 114 121 132 103 141 143 140 147 148 151 152 152 152 149 145 139 128 115 94 78 71 66 67 72 75 68 60 53 42 31 23 21 17 12 1
353 76 44 55 303 290 141 129 111 105 102 106 114 74 57 132 105 139 150 145 139 151 153 162 162 160 159 158 157 153 141 118 100 93 80 72 61 71 73 67 55 44 35 22 14 14 8 357 352
188 88 80 118 290 198 95 110 117 91 107 103 101 103 101 100 132 143 153 151 147 162 163 165 168 168 168 170 163 157 148 134 140 142 120 106 102 96 90 77 53 37 28 14 3 353 347 342 338
329 112 40 114 101 281 67 82 80 97 101 108 105 114 126 131 132 154 155 155 160 164 171 168 171 175 177 176 171 166 164 162 168 158 156 149 142 138 136 123 40 28 21 12 5 355 339 338 330
198 170 141 355 262 306 35 56 107 116 125 132 139 130 158 143 150 165 158 163 158 162 163 171 178 184 187 182 178 176 171 161 148 206 217 204 214 212 200 200 354 10 2 1 357 350 339 335 336
287 100 165 159 251 70 14 37 73 102 43 144 136 144 163 157 158 171 143 156 161 163 163 178 186 190 190 185 181 181 161 139 154 201 268 287 262 242 245 261 284 352 343 347 348 341 333 330 327
281 98 118 177 212 135 197 107 356 175 99 97 169 140 152 154 160 163 166 178 172 169 171 178 182 190 192 187 184 168 166 172 193 226 238 274 274 267 262 264 283 346 339 3 359 354 350 345 341
238 139 195 203 196 142 137 118 248 27 106 115 113 126 148 153 159 165 180 189 177 173 187 184 189 193 193 183 180 180 166 175 215 295 223 282 271 263 237 279 190 353 21 11 355 346 342 326 333
275 161 163 215 183 135 154 138 178 101 294 159 152 147 160 153 151 127 145 237 173 173 150 150 162 177 189 187 188 177 187 203 236 163 200 200 282 288 173 356 29 351 352 343 325 319 337 333 329
2 47 61 127 146 149 134 99 61 94 292 201 154 159 162 160 132 157 154 193 230 172 172 179 197 193 178 131 171 185 208 195 204 196 199 197 242 213 259 321 347 343 340 323 314 324 336 327 328
312 140 156 114 210 113 132 138 124 178 273 247 164 125 3 65 58 354 172 192 220 164 171 187 183 175 168 174 152 178 182 192 157 185 187 204 205 229 350 10 341 350 328 319 324 331 326 333 331
36 19 359 108 306 121 128 130 150 227 190 122 270 176 151 150 143 322 308 204 186 168 176 158 165 169 175 182 199 82 99 167 176 166 191 177 69 331 300 283 309 335 329 334 332 330 328 330 326
353 296 334 323 192 113 110 158 228 233 233 151 122 134 129 135 153 213 281 144 142 141 141 129 144 156 151 125 103 92 121 129 141 152 142 119 130 307 278 241 297 307 316 328 327 322 325 324 328
329 45 28 303 318 211 130 239 235 251 232 111 123 130 142 178 173 76 327 265 161 142 133 115 143 149 133 142 129 112 129 131 137 166 116 171 180 133 245 278 294 310 319 322 326 325 327 330 331
45 221 235 331 325 315 58 263 224 230 186 149 149 137 129 216 71 76 245 272 155 158 145 141 112 131 159 170 157 135 225 251 16 305 283 240 262 272 244 259 280 314 299 323 317 323 337 328 322
239 236 130 265 292 356 10 104 235 237 186 146 165 165 163 113 127 168 228 252 147 138 142 152 135 127 141 134 212 209 216 225 273 317 313 231 266 200 236 262 301 282 299 311 316 334 332 332 327
331 55 149 217 240 14 300 296 359 97 59 64 189 186 109 140 165 184 248 350 132 142 131 101 141 211 244 208 231 259 211 251 276 277 229 210 200 213 249 285 260 274 303 302 318 323 328 331 329
337 34 23 354 342 352 311 287 62 52 28 54 20 97 137 141 182 194 87 81 35 19 71 6 275 243 242 218 245 236 187 283 292 283 216 208 222 270 288 275 276 289 277 302 320 322 332 328 335
54 47 354 330 323 329 33 35 32 11 42 41 347 123 147 173 166 156 134 158 91 84 62 293 262 233 229 244 258 277 285 291 343 353 231 142 269 275 281 273 278 253 267 297 310 318 319 322 316
53 5 347 325 11 269 45 209 7 51 53 21 280 288 200 165 146 169 160 114 126 128 251 216 238 236 223 237 254 311 295 331 37 51 39 4 353 18 337 301 277 278 313 327 317 303 314 318 306
354 352 303 279 265 73 354 68 304 61 313 329 272 309 273 141 170 176 85 102 136 138 213 251 303 226 209 211 248 248 326 13 7 351 348 352 15 27 353 333 328 327 327 330 307 312 315 307 298
346 1 329 352 65 45 318 108 279 11 312 257 254 284 9 147 86 94 117 134 134 131 149 202 226 226 218 228 256 245 282 330 11 4 28 9 352 346 353 358 345 327 325 320 313 312 307 303 302
49 41 349 16 31 239 10 57 231 268 19 29 41 44 64 88 106 103 121 114 113 166 146 139 210 212 211 248 257 254 165 77 52 38 6 358 0 355 354 339 343 337 330 322 315 307 307 305 297
33 84 125 326 15 242 354 6 259 237 339 23 33 43 69 93 116 125 132 129 142 175 179 13 124 280 201 275 159 101 92 66 47 13 21 10 359 345 355 347 343 333 331 331 313 306 306 304 304
348 36 276 34 327 70 307 315 342 326 32 36 38 49 52 92 107 135 151 153 222 247 356 14 44 46 44 79 75 60 44 31 29 24 6 351 358 359 348 339 334 335 332 320 320 325 311 308 306
104 193 9 4 44 7 246 84 318 350 357 37 41 36 44 59 79 65 60 38 37 60 52 61 64 63 57 54 52 51 48 48 23 18 19 15 0 351 351 352 345 338 327 326 336 324 322 321 315
13 2 275 175 123 175 5 272 226 4 38 47 35 47 34 44 48 61 70 75 58 57 59 59 57 53 45 62 62 60 40 32 27 25 13 3 0 356 352 353 350 352 346 351 341 332 337 326 318
198 198 166 121 311 356 145 272 1 72 48 52 51 40 4 354 41 47 56 77 63 52 55 64 62 51 53 70 48 52 45 37 24 12 8 3 1 0 354 358 356 352 357 354 353 348 350 353 343